SCP
0 0 0 0 0 0 0 0 0 0 0 0 0 0 0 0 0 0 0 0 0 0 0 0 0 0 0 0 1 1 1 1 1 0 0 0 0 0 0 0 0 0 0 0
0 0 0 0 0 0 0 0 0 0 0 0 0 0 0 0 0 0 0 0 0 0 0 0 0 0 0 0 1 1 1 1 0 0 0 0 0 0 0 0 0 0 0 0
0 0 0 0 0 0 0 0 0 0 0 0 0 0 0 0 0 0 0 0 0 0 0 0 0 0 0 0 0 0 1 1 0 0 0 0 0 0 0 0 0 0 0 0
0 0 0 0 0 0 0 0 0 0 0 0 0 0 0 0 0 0 0 0 0 0 0 0 0 0 0 0 0 1 1 1 0 0 0 0 0 0 0 0 0 0 0 0
0 0 0 0 0 0 0 0 0 0 0 0 0 0 0 0 0 0 0 0 0 0 0 0 0 0 0 0 1 1 1 1 0 0 0 0 0 0 0 0 0 0 0 0
0 0 0 0 0 0 0 0 0 0 0 0 0 0 0 0 0 0 0 0 0 0 0 0 0 0 0 0 1 1 1 1 1 0 0 0 0 0 0 0 0 0 0 0
0 0 0 0 0 0 0 0 0 0 0 0 0 0 0 0 0 0 0 0 0 0 0 0 0 0 0 0 1 1 1 1 1 0 0 0 0 0 0 0 0 0 0 0
0 0 0 0 0 0 0 0 0 0 0 0 0 0 0 0 0 0 0 0 0 0 0 0 0 0 0 0 1 1 1 1 1 1 0 0 0 0 0 0 0 0 0 0
0 0 0 0 0 0 0 0 0 0 0 0 0 0 0 0 0 0 0 0 0 0 0 0 0 0 0 0 1 1 1 1 1 1 1 0 0 0 0 0 0 0 0 0
0 0 0 0 0 0 0 0 0 0 0 0 0 0 0 0 0 0 0 0 0 0 0 0 0 0 0 0 1 1 1 1 1 1 1 0 0 0 0 0 0 0 0 0
0 0 0 0 0 0 0 0 0 0 0 0 0 0 0 0 0 0 0 0 0 0 0 0 0 0 0 0 1 1 1 1 1 1 1 1 0 0 0 0 0 0 0 0
0 0 0 0 0 0 0 0 0 0 0 0 0 0 0 0 0 0 0 0 0 0 0 0 0 0 0 0 0 1 1 1 1 1 1 0 0 0 0 0 0 0 0 0
0 0 0 0 0 0 0 0 0 0 0 0 0 0 0 0 0 0 0 0 0 0 0 0 0 0 0 0 0 0 1 1 1 1 1 1 0 0 0 0 0 0 0 0
0 0 0 0 0 0 0 0 0 0 0 0 0 0 0 0 0 0 0 0 0 0 0 0 0 0 0 0 0 0 0 1 1 1 1 1 0 0 0 0 0 0 0 0
0 0 0 0 0 0 0 0 0 0 0 0 0 0 0 0 0 0 0 0 0 0 0 0 0 0 0 0 0 0 0 0 0 1 1 1 0 0 0 0 0 0 0 0
0 0 0 0 0 0 0 0 0 0 0 0 0 0 0 0 0 0 0 0 0 0 0 0 0 0 0 0 0 0 0 0 0 0 0 0 0 0 0 0 0 0 0 0
0 0 0 0 0 0 0 0 0 0 0 0 0 0 0 0 0 0 0 0 0 0 0 0 0 0 0 0 0 0 0 0 0 0 0 0 0 0 0 0 0 0 0 0
0 0 0 0 0 0 0 0 0 0 0 0 0 0 0 0 0 0 0 0 0 0 0 0 0 0 0 0 0 0 0 0 0 0 0 0 0 0 0 0 0 0 0 0
0 0 0 0 0 0 0 0 0 0 0 0 0 0 0 0 0 0 0 0 0 0 0 0 0 0 0 0 0 0 0 0 0 0 0 0 0 0 0 0 0 0 0 0
0 0 0 0 0 0 0 0 0 0 0 0 0 0 0 0 0 0 0 0 0 0 0 0 0 0 0 0 0 0 0 0 0 0 0 0 0 0 0 0 0 0 0 0
0 0 0 0 0 0 0 0 0 0 0 0 0 0 0 0 0 0 0 0 0 0 0 0 0 0 0 0 0 0 0 0 0 0 0 0 0 0 0 0 0 0 0 0
0 0 0 0 0 0 0 0 0 0 0 0 0 0 0 0 0 0 0 0 0 0 0 0 0 0 0 0 0 0 0 0 0 0 0 0 0 0 0 0 0 0 0 0
0 0 0 0 0 0 0 0 0 0 0 0 0 0 0 0 0 0 0 0 0 0 0 0 0 0 0 0 0 0 0 0 0 0 0 0 0 0 0 0 0 0 0 0
0 0 0 0 0 0 0 0 0 0 0 0 0 0 0 0 0 0 0 0 0 0 0 0 0 0 0 0 0 0 0 0 0 0 0 0 0 0 0 0 0 0 0 0
0 0 0 0 0 0 0 0 0 0 0 0 0 0 0 0 0 0 0 0 0 0 0 0 0 0 0 0 0 0 0 0 0 0 0 0 0 0 0 0 0 0 0 0
0 0 0 0 0 0 0 0 0 0 0 0 0 0 0 0 0 0 0 0 0 0 0 0 0 0 0 0 0 0 0 0 0 0 0 0 0 0 0 0 0 0 0 0
Wind_Speed
8 8 11 12 13 12 10 9 10 9 4 7 11 14 13 11 10 10 10 9 9 10 9 9 10 10 10 10 11 12 13 12 10 8 8 7 7 6 5 5 7 8 8 8
8 15 14 10 10 12 14 13 12 9 4 6 10 14 13 12 12 11 11 10 9 8 7 8 8 9 10 11 11 12 13 12 11 9 8 6 6 5 5 5 6 8 9 9
17 9 10 13 13 13 14 13 11 10 7 7 8 12 13 11 12 11 10 8 8 8 9 9 9 9 9 10 11 11 12 12 11 10 7 5 4 4 4 6 6 7 8 9
13 13 11 12 14 13 12 9 9 10 7 6 5 8 8 7 8 10 10 10 9 8 7 8 9 9 9 9 9 10 11 11 11 11 9 10 8 8 8 6 6 7 9 9
9 9 12 15 13 12 8 5 8 8 8 9 9 8 8 7 9 11 11 10 9 9 8 8 9 9 9 8 9 9 10 11 11 11 11 11 9 7 5 6 8 8 8 9
12 8 9 10 9 8 5 4 6 5 5 10 12 10 8 7 9 9 10 9 9 9 8 8 7 8 7 8 8 8 9 10 11 12 12 12 11 9 8 9 8 8 6 6
11 12 9 5 6 7 6 4 4 5 7 9 8 10 9 6 5 6 7 8 8 9 8 8 9 9 9 9 9 9 10 10 11 12 12 12 12 11 11 9 9 8 6 6
9 10 12 9 9 7 10 9 7 6 6 5 7 11 8 6 4 3 4 5 6 8 8 8 9 9 9 10 10 10 11 10 11 12 12 11 11 8 7 9 8 8 7 7
7 7 7 10 9 8 8 10 8 5 6 6 7 7 6 4 4 5 5 5 6 7 8 8 8 9 9 10 11 11 11 10 11 12 11 10 11 10 8 8 7 6 6 6
5 6 6 7 5 9 8 6 5 6 6 7 8 9 6 6 8 7 7 6 6 6 7 7 7 8 8 9 9 10 11 11 10 11 10 9 9 9 8 7 7 7 7 6
7 6 5 6 11 12 9 9 7 6 6 5 5 5 3 4 5 6 6 6 6 6 6 6 6 7 7 7 8 9 9 9 9 10 10 9 8 8 8 7 7 7 7 7
5 4 6 9 6 7 10 12 11 8 8 7 6 7 2 2 2 2 2 3 4 5 5 4 5 5 6 7 7 8 9 9 9 9 9 9 8 8 8 7 7 7 7 7
4 4 5 5 5 6 8 10 12 9 7 8 9 9 2 0 1 1 1 1 3 4 4 4 4 5 5 6 7 8 9 9 9 9 9 9 8 8 8 7 7 7 7 6
4 5 8 9 5 5 8 10 11 11 10 12 15 14 9 5 4 4 4 4 3 4 4 4 4 5 5 6 6 7 8 8 9 9 9 9 9 9 8 7 7 7 6 6
3 7 10 13 11 9 11 13 14 17 16 15 15 17 15 10 7 6 5 4 4 4 4 5 5 5 5 5 6 6 7 8 9 9 9 9 8 8 7 7 7 6 6 6
3 5 8 13 13 12 13 14 16 18 19 20 19 20 13 10 8 7 5 5 5 6 6 6 6 6 6 6 6 7 7 7 8 9 9 8 8 8 8 8 7 7 6 6
4 4 6 10 10 10 14 16 16 16 18 17 21 20 10 11 11 9 7 6 7 6 6 6 7 7 7 7 7 8 8 7 8 8 8 8 8 8 8 7 7 7 7 6
7 7 5 6 6 14 11 8 13 16 18 16 15 13 11 11 10 8 8 7 7 6 6 6 6 6 5 5 5 5 6 7 8 8 8 8 8 8 7 8 7 7 6 6
11 9 6 5 8 11 9 8 10 13 15 13 15 15 12 9 8 9 7 6 7 6 5 5 5 5 5 5 5 5 6 6 7 8 8 8 8 8 8 8 8 6 6 5
11 9 7 6 7 10 7 5 5 6 12 9 11 12 9 6 8 9 6 6 6 4 3 3 3 3 3 4 5 6 6 7 8 8 8 7 8 8 8 8 7 5 5 5
7 8 11 10 10 10 7 4 2 7 7 2 4 6 5 6 9 7 4 4 4 4 3 2 3 3 4 4 6 6 6 7 7 6 6 7 7 7 7 6 5 6 5 5
9 7 9 8 10 12 4 2 5 5 3 3 4 4 4 6 7 6 5 4 3 3 3 2 3 3 3 4 6 6 6 6 5 6 6 6 6 6 6 7 6 6 6 5
9 9 6 9 10 6 4 6 5 4 5 5 5 6 6 6 6 5 5 4 4 3 3 2 3 3 3 4 6 6 5 5 6 6 6 6 6 6 6 7 7 6 5 5
7 6 7 9 10 9 9 8 7 6 7 7 6 5 6 6 6 6 5 5 4 4 3 2 3 3 3 3 4 5 5 6 7 7 6 6 6 6 5 5 5 5 5 5
7 5 8 12 11 10 10 8 8 8 7 7 6 6 5 6 7 7 6 6 5 4 3 2 3 3 3 3 3 4 5 6 7 6 6 6 6 6 5 4 3 4 4 5
8 8 10 11 7 7 8 6 7 8 8 8 8 7 6 6 7 7 6 5 4 3 2 2 2 3 3 3 3 4 5 6 7 6 6 5 5 5 5 5 3 4 3 5
Wind_Direction
202 216 220 216 218 238 261 265 264 262 223 227 241 252 255 249 242 236 233 227 222 218 205 191 188 182 177 178 176 174 173 178 177 176 179 183 187 183 181 181 179 180 181 181
220 226 226 226 228 237 251 262 268 275 245 244 257 263 260 247 238 234 231 229 222 214 196 185 182 179 179 178 180 177 177 178 181 181 180 180 178 181 183 182 186 186 186 185
225 229 220 231 231 233 241 244 255 269 285 262 263 270 252 239 231 229 228 225 221 207 195 184 181 180 179 181 182 181 179 178 179 174 167 166 165 172 183 189 192 193 191 190
238 237 230 229 232 231 244 240 250 266 275 271 250 277 267 242 222 221 221 217 213 207 196 181 177 181 184 184 178 178 176 175 176 172 176 177 183 190 195 188 189 193 194 194
234 222 226 231 232 233 243 244 249 252 255 265 259 263 263 234 227 219 216 212 203 194 189 183 178 180 180 176 173 175 173 176 176 178 182 186 193 195 188 184 187 192 196 195
247 248 235 236 236 240 246 247 254 250 253 252 233 236 262 229 224 216 208 200 189 182 180 177 171 167 171 169 168 172 174 178 177 181 186 191 194 191 189 192 191 192 194 195
236 237 232 231 226 220 212 200 223 216 218 239 207 222 245 225 215 213 203 194 184 177 175 175 174 175 176 175 176 179 180 182 182 186 192 196 198 196 197 195 193 191 192 196
216 225 208 205 213 205 204 203 209 218 226 238 205 225 241 210 191 211 211 189 183 181 183 182 182 181 180 180 179 182 185 187 186 190 195 197 197 197 200 197 192 192 194 194
220 229 192 201 209 207 202 216 231 274 292 278 244 242 237 197 204 213 220 206 199 193 187 184 182 181 180 181 184 185 187 189 190 191 193 197 197 196 198 195 190 190 189 184
247 251 211 195 202 219 215 205 194 212 231 245 251 242 236 204 214 213 213 212 207 199 191 185 184 184 182 183 184 185 187 190 189 189 191 195 197 195 192 189 190 186 184 180
242 248 224 191 201 202 198 209 205 207 230 237 255 247 228 204 198 196 202 204 201 198 196 192 190 186 179 178 180 184 187 188 189 189 189 189 192 189 187 190 190 183 181 181
224 242 239 234 233 215 209 210 204 208 223 230 254 262 315 28 66 127 180 205 203 197 194 190 186 180 178 181 187 189 189 188 188 185 184 185 184 184 187 190 187 179 179 180
189 217 229 233 226 221 225 222 223 231 241 239 240 253 233 300 356 329 263 247 214 201 193 189 184 185 189 192 192 191 189 186 181 178 179 180 181 184 188 188 183 178 177 178
198 218 223 226 227 208 230 234 229 227 232 238 240 255 265 258 245 248 245 241 225 207 202 200 199 203 202 201 197 194 189 182 177 176 178 181 184 184 185 183 179 176 174 175
211 237 244 256 263 251 242 242 233 230 233 239 244 249 255 260 257 251 239 237 233 224 216 212 210 211 210 207 200 194 190 180 174 175 181 184 179 175 175 177 174 168 168 171
224 251 251 257 257 256 254 245 239 239 239 244 254 257 257 269 275 273 259 241 240 232 222 219 217 214 212 209 203 194 189 179 170 175 181 176 172 172 174 175 170 167 170 172
204 235 245 251 253 261 249 234 234 236 235 236 246 252 262 265 266 264 262 251 244 241 235 228 223 219 215 212 203 195 187 174 171 175 175 173 171 171 172 170 168 172 176 174
217 226 246 263 247 241 242 220 226 238 243 237 244 252 249 252 258 256 249 245 243 237 233 229 224 223 219 208 199 184 172 168 172 174 174 171 168 168 166 168 173 176 174 175
218 216 224 237 248 260 260 235 225 232 245 240 245 253 256 258 269 263 260 263 255 243 232 224 220 219 209 197 182 166 167 166 170 175 175 172 168 167 169 175 178 175 170 174
213 214 221 222 239 244 248 236 222 225 255 246 240 250 257 248 248 257 267 271 268 266 242 220 217 211 204 190 163 162 172 172 181 181 176 169 167 169 173 176 172 165 164 169
196 210 221 230 242 260 266 266 182 211 246 270 235 245 249 239 243 268 281 276 273 267 254 227 213 205 202 176 159 169 176 188 186 168 158 159 162 165 165 160 158 154 151 152
203 204 212 217 232 248 251 229 212 242 295 323 325 306 279 266 267 273 276 273 278 275 260 234 218 219 204 172 167 178 191 184 157 151 154 157 156 155 155 152 151 149 149 152
217 212 212 214 228 247 235 236 256 285 297 302 307 309 303 289 285 286 281 276 272 263 259 241 221 218 210 180 174 186 186 156 148 150 156 155 151 151 154 155 154 150 151 156
242 229 236 247 249 251 258 260 263 260 269 282 287 298 311 300 297 294 286 282 279 274 253 236 225 210 207 188 179 179 161 152 152 158 158 153 151 151 148 148 153 158 164 164
238 229 242 253 261 274 263 258 264 276 276 280 281 275 276 283 287 286 282 278 275 268 254 233 221 212 210 181 170 156 152 151 156 158 155 153 153 151 143 138 148 160 172 173
237 236 240 251 255 254 265 268 271 274 275 278 281 280 275 268 274 281 278 276 268 257 246 239 224 208 205 182 173 158 152 155 157 157 157 155 152 146 141 134 105 84 131 144